Location: Hamilton
(37.7830°S, 175.2830°E)
Time: 08:48:36
(UTC+13:00)

Aureole 3 Rocket - Pass Details

Date: 24 January 2019
Orbit: 400 x 1740 km, 82.5° (Epoch: 20 October)

Event Time Altitude Azimuth Distance (km) Brightness Sun altitude
Rises 21:47:18 0° 189° (S) 2,480 6.9 -12.5°
Reaches altitude 10° 21:49:09 10° 190° (S) 1,680 6.0 -12.8°
Maximum altitude 21:52:44 80° 277° (W) 583 3.0 -13.4°
Drops below altitude 10° 21:57:25 10° 3° (N) 2,184 5.5 -14.1°
Enters shadow 21:57:43 - 3° (N) 2,313 5.6 -14.1°
